Weather Roundup
Issued by NWS Chicago, IL

Home | Current Version | Previous Version | Graphics & Text | Print | Product List | Glossary On
Versions: 1 2 3 4 5 6 7 8 9 10 11 12 13 14 15 16 17 18 19 20 21 22 23 24 25 26 27 28 29 30 31 32 33 34 35 36 37 38 39 40 41 42 43 44 45 46 47 48 49 50
000
NZUS59 KLOT 162008
HRRLOT

CHICAGO AREA WEATHER ROUNDUP
NATIONAL WEATHER SERVICE CHICAGO/ROMEOVILLE IL
200 PM CST MON JAN 16 2017

NOTE: "FAIR" INDICATES FEW OR NO CLOUDS BELOW 12,000 FEET WITH NO
SIGNIFICANT WEATHER AND/OR OBSTRUCTIONS TO VISIBILITY.

* THESE STATIONS ARE NOT UNDER NWS QUALITY CONTROL. THEY ALSO MAY NOT
  REPORT WEATHER SUCH AS PRECIPITATION OR FOG.

ILZ005-006-012>014-019>023-162100-
NORTHEAST ILLINOIS

CITY           SKY/WX    TMP DP  RH WIND       PRES   REMARKS
OHARE          LGT RAIN  35  34  96 E8        30.08F VSB 1   WCI  29
MIDWAY         RAIN      36  35  96 E8        30.08F VSB 1
AURORA         LGT RAIN  36  34  92 E8        30.07F FOG
LANSING*       LGT RAIN  35  35 100 E7        30.10F VSB 1   WCI  29
JOLIET*        RAIN      37  37  99 E6        30.08F
WAUKEGAN       LGT RAIN  35  34  96 E6        30.11F VSB 1/2 WCI  30
DUPAGE AIRPORT RAIN      35  33  92 E7        30.07F FOG     WCI  29
WHEELING       LGT RAIN  34  33  96 E5        30.11F FOG     WCI  30
KANKAKEE*      FOG       37  36  98 E8        30.08F VSB 1/2
MORRIS*        LGT RAIN  35  34  96 E8        30.06F WCI  29
LEWIS AIRPORT* LGT RAIN  35  35 100 E7        30.07F WCI  29
NORTHERLY ISL    N/A     33  32  96 E5          N/A  WCI  29
$$

WIZ051-052-058>065-066-070>072-162100-
SOUTHEAST WISCONSIN

CITY           SKY/WX    TMP DP  RH WIND       PRES   REMARKS
MILWAUKEE      LGT RAIN  36  32  85 E8        30.13F
KENOSHA*       RAIN      35  33  92 E8        30.11F VSB 1/2 WCI  29
RACINE*        LGT RAIN  35  32  88 E8        30.14F FOG     WCI  29
WAUKESHA       CLOUDY    32  30  93 E9        30.12F FOG     WCI  24
WEST BEND      LGT RAIN  32  32 100 E7        30.12F WCI  26
$$

INZ001>003-010>013-019-020-162100-
NORTHWEST INDIANA

CITY           SKY/WX    TMP DP  RH WIND       PRES   REMARKS
GARY*          LGT RAIN  37  36  93 E6        30.11F VSB 1/2
MICHIGAN CITY* NOT AVBL
RENSSELAER*    NOT AVBL
VALPARAISO     LGT RAIN  37  36  96 E8        30.10F VSB 1/4
$$

LMZ740>746-162100-
SOUTHERN LAKE MICHIGAN

STATION/POSITION TIME  SKY/WX   TEMP WIND        PRES    VSBY
                                AIR  DIR/SP/G
                 (UTC)          (F)  (DEG/KT/KT) (MB)    (MI)
HARRISON CRIB    1940            34  110/ 11/ 11   N/A
BURNHAM HARBOR   2000            33   80/  6       N/A
CALUMET HARBOR   1942            33   70/  6/  7 1018.8F
BURNS HARBOR     1940            36  140/  4/  7 1020.7F
MICHIGAN CITY    1940            36   90/  5/  7   N/A
$$

ABBREVIATIONS USED IN REMARKS
   TC - TEMPERATURE IN CELSIUS
  WCI - WIND CHILL INDEX
   HX - HEAT INDEX
  VSB - VISIBILITY
$$




USA.gov is the U.S. government's official web portal to all federal, state and local government web resources and services.